This is the latest recevied weather packets stored in our database for station/object KE8KMM. If no packets are shown the sender has not sent any weather packets the latest 10 day(s).
| Time | Temp. | Humidity | Pressure | Rain* | Wind** | Luminosity | Snow |
|---|---|---|---|---|---|---|---|
| 1777763153 | 6.11° C | 76% | 1015.8 hPa | 0 mm | - | 35 W/m² | - |
| 1777762851 | 5.56° C | 76% | 1015.8 hPa | 0 mm | - | 36 W/m² | - |
| 1777762546 | 6.11° C | 76% | 1015.9 hPa | 0 mm | - | 49 W/m² | - |
| 1777762244 | 6.11° C | 75% | 1015.7 hPa | 0 mm | - | 64 W/m² | - |
| 1777761940 | 6.11° C | 76% | 1015.8 hPa | 0 mm | - | 70 W/m² | - |
| 1777761637 | 6.11° C | 75% | 1015.8 hPa | 0 mm | - | 82 W/m² | - |
| 1777761335 | 6.11° C | 76% | 1015.6 hPa | 0 mm | - | 91 W/m² | - |
| 1777761033 | 6.11° C | 76% | 1016 hPa | 0 mm | - | 89 W/m² | - |
| 1777760730 | 6.11° C | 76% | 1015.9 hPa | 0 mm | - | 88 W/m² | - |
| 1777760426 | 6.11° C | 75% | 1016 hPa | 0 mm | - | 100 W/m² | - |
| 1777760122 | 6.67° C | 76% | 1016.2 hPa | 0 mm | - | 119 W/m² | - |
| 1777759820 | 6.67° C | 76% | 1015.7 hPa | 0 mm | - | 124 W/m² | - |
| 1777759515 | 6.67° C | 76% | 1015.8 hPa | 0 mm | - | 111 W/m² | - |
| 1777759212 | 6.67° C | 76% | 1015.7 hPa | 0 mm | - | 105 W/m² | - |
| 1777758910 | 6.11° C | 76% | 1015.8 hPa | 0 mm | - | 95 W/m² | - |
| 1777758606 | 6.11° C | 77% | 1015.8 hPa | 0 mm | - | 88 W/m² | - |
| 1777758303 | 6.67° C | 77% | 1015.6 hPa | 0 mm | - | 83 W/m² | - |
| 1777758000 | 6.11° C | 76% | 1015.7 hPa | 0 mm | - | 65 W/m² | - |
| 1777757697 | 6.67° C | 76% | 1015.6 hPa | 0 mm | - | 49 W/m² | - |
| 1777757395 | 6.67° C | 74% | 1015.5 hPa | 0 mm | - | 58 W/m² | - |
| 1777757093 | 6.67° C | 74% | 1015.5 hPa | 0 mm | - | 77 W/m² | - |
| 1777756790 | 6.67° C | 74% | 1015.4 hPa | 0 mm | - | 108 W/m² | - |
| 1777756486 | 7.22° C | 73% | 1015.3 hPa | 0 mm | - | 120 W/m² | - |
| 1777756184 | 7.22° C | 73% | 1015.3 hPa | 0 mm | - | 137 W/m² | - |
| 1777755880 | 7.22° C | 75% | 1015.2 hPa | 0 mm | - | 163 W/m² | - |
* Rain latest hour (hover to see other rain measurements)
** Current wind speed in m/s (hover to see current wind gust speed)